Find Starlink 31368

NORAD ID: 58970 Int'l Des: 2024-031 Owner: SPXS Country: US Constellation: starlink operational
LEOCIRCULAR

Live Position

Loading 3D Globe...

About Starlink 31368

Description loading...

Upcoming Passes

Passes for default location (London). Set your location on the main map for personalized predictions.

Altitude History

Loading altitude history...

Two-Line Element Set

1 58970U 24031F 26125.16547024 .00001865 00000-0 75082-4 0 9990
2 58970 53.1596 34.1080 0000890 51.9557 308.1524 15.30201287125184
Epoch: May 5, 2026 • Age: 14 hours

Current Status

Altitude 486.0 km
Velocity 7.62 km/s
Sub-Earth Point -34.02°S, 130.7°W
Launch Date Feb 15, 2024
Age 2.2 years
Type internet

Technical Details

Classification Payload
Mass 730.00 kg
Dry Mass 700.00 kg
Total Mass 730.00 kg
Length 0.30 m
Diameter 4.10 m
Span 29.00 m
Shape Box + pan
Manufacturer SPXS
Bus Type Starlink V2M
Phase Status In Orbit
Owner/State SPXS/US

Most Searched